Grand Island, NE

3:57 PM CDT on May 23, 2018 (GMT -0500)
Central Nebraska Regional

Weather History for KGRI - September, 2012

Change the Weather History Date:

Monday, September 10, 2012

  Actual Average Record
Temperature  
Mean Temperature 74 °F 68 °F  
Max Temperature 93 °F 80 °F 101 °F (1931)
Min Temperature 54 °F 55 °F 34 °F (1962)
Degree Days  
Heating Degree Days 0 2  
Month to date heating degree days 6 14  
Since 1 July heating degree days 10 24  
Cooling Degree Days 9 5  
Month to date cooling degree days 87 57  
Year to date cooling degree days 1471 971  
Growing Degree Days 24 (Base 50)    
Moisture  
Dew Point 44 °F    
Average Humidity 44    
Maximum Humidity 72    
Minimum Humidity 16    
Precipitation  
Precipitation 0.00 in 0.07 in 3.34 in (1911)
Month to date precipitation 0.01 0.78  
Year to date precipitation 8.12 21.55  
Snow  
Snow 0.00 in 0.00 in - ()
Month to date snowfall 0.0 0.0  
Since 1 July snowfall 0.0 0.0  
Since 1 September snowfall 0.0 0.0  
Snow Depth 0.00 in    
Sea Level Pressure  
Sea Level Pressure 29.95 in    
Wind  
Wind Speed 18 mph (South)    
Max Wind Speed 31 mph    
Max Gust Speed 40 mph    
Visibility 10 miles    
Events      
T = Trace of Precipitation, MM = Missing Value Source: NWS Daily Summary

Daily Weather History Graph

Daily Weather History Graph

Search for Another Location

Airport or City:

Astronomy

Sep. 10, 2012 Rise Set
Actual Time 7:09 AM CDT 7:49 PM CDT
Civil Twilight 6:41 AM CDT 8:17 PM CDT
Nautical Twilight 6:08 AM CDT 8:50 PM CDT
Astronomical Twilight 5:34 AM CDT 9:24 PM CDT
Moon 1:29 AM CDT (9/10) 4:22 PM CDT (9/10)
Length of Visible Light 13h 35m
Length of Day
12h 40m
Waning Crescent, 30% of the Moon is Illuminated
Sep 10
Waning Crescent
Sep 15
New
Sep 22
First Quarter
Sep 29
Full
Oct 8
Last Quarter

Hourly Weather History & Observations

Time (CDT) Temp. Dew Point Humidity Pressure Visibility Wind Dir Wind Speed Gust Speed Precip Events Conditions
12:53 AM 57.0 °F 41.0 °F 55% 30.09 in 10.0 mi South 9.2 mph - N/A   Clear
1:53 AM 55.9 °F 42.1 °F 60% 30.08 in 10.0 mi South 8.1 mph - N/A   Clear
2:53 AM 55.9 °F 44.1 °F 64% 30.06 in 10.0 mi South 9.2 mph - N/A   Clear
3:53 AM 55.9 °F 45.0 °F 67% 30.06 in 10.0 mi South 10.4 mph - N/A   Clear
4:53 AM 55.0 °F 46.0 °F 72% 30.06 in 10.0 mi South 9.2 mph - N/A   Clear
5:53 AM 55.0 °F 46.0 °F 72% 30.04 in 10.0 mi South 12.7 mph - N/A   Clear
6:53 AM 55.0 °F 46.0 °F 72% 30.05 in 10.0 mi South 11.5 mph - N/A   Clear
7:53 AM 57.0 °F 46.9 °F 69% 30.05 in 10.0 mi South 16.1 mph 23.0 mph N/A   Clear
8:53 AM 63.0 °F 46.9 °F 56% 30.03 in 10.0 mi South 18.4 mph - N/A   Clear
9:53 AM 70.0 °F 46.9 °F 44% 30.01 in 10.0 mi South 19.6 mph 31.1 mph N/A   Clear
10:53 AM 77.0 °F 46.0 °F 33% 29.98 in 10.0 mi South 24.2 mph 32.2 mph N/A   Clear
11:53 AM 81.0 °F 46.0 °F 29% 29.96 in 10.0 mi South 23.0 mph 29.9 mph N/A   Clear
12:53 PM 82.9 °F 46.0 °F 27% 29.95 in 10.0 mi South 24.2 mph 32.2 mph N/A   Clear
1:53 PM 88.0 °F 45.0 °F 22% 29.92 in 10.0 mi South 23.0 mph 33.4 mph N/A   Clear
2:53 PM 90.0 °F 43.0 °F 19% 29.89 in 10.0 mi SSW 27.6 mph 38.0 mph N/A   Clear
3:53 PM 91.9 °F 42.1 °F 18% 29.86 in 10.0 mi South 24.2 mph 36.8 mph N/A   Clear
4:53 PM 91.9 °F 39.9 °F 16% 29.85 in 10.0 mi SSW 23.0 mph 35.7 mph N/A   Clear
5:53 PM 91.0 °F 39.0 °F 16% 29.84 in 10.0 mi South 18.4 mph 31.1 mph N/A   Clear
6:53 PM 88.0 °F 39.9 °F 18% 29.83 in 10.0 mi South 19.6 mph 32.2 mph N/A   Clear
7:53 PM 81.0 °F 42.1 °F 25% 29.83 in 10.0 mi South 13.8 mph - N/A   Clear
8:53 PM 78.1 °F 44.1 °F 30% 29.83 in 10.0 mi South 16.1 mph - N/A   Clear
9:53 PM 75.0 °F 44.1 °F 33% 29.83 in 10.0 mi South 15.0 mph - N/A   Clear
10:53 PM 71.1 °F 44.1 °F 38% 29.83 in 10.0 mi South 16.1 mph - N/A   Clear
11:53 PM 73.0 °F 44.1 °F 35% 29.80 in 10.0 mi South 19.6 mph 26.5 mph N/A   Clear